Location: Ettringen
(48.1054°N, 10.6545°E)
Time: 03:00:00
(UTC+00:00)

Cosmos 1833 Rocket - Pass Details

Date: 18 November 2025
Orbit: 829 x 840 km, 71.0° (Epoch: 04 December)

Event Time Altitude Azimuth Distance (km) Brightness Sun altitude
Rises 16:22:36 0° 328° (NNW) 3,405 6.0 -7.9°
Reaches altitude 10° 16:25:06 10° 324° (NW) 2,467 5.3 -8.3°
Maximum altitude 16:30:34 52° 250° (WSW) 1,034 3.7 -9.2°
Drops below altitude 10° 16:36:00 10° 175° (S) 2,448 5.3 -10.0°
Sets 16:38:29 0° 170° (S) 3,377 5.9 -10.4°
